Weather observations for the past three days for
Nausori International Airport
Metric (Imperial)
Date Time (+12) Wind (kph) Vis. (km) Weather Sky Cond. Temperature (ºC) Relative Humidity Wind Chill (°C) Heat Index (°C) Pressure Precipitation (cm)
Air Dwpt 6 hour altimeter (cm) sea level (mb) 1 hr 3 hr 6 hr
Max. Min.
09 18:00 Vrbl 2 0.00 A Few Clouds FEW024 23 20 83% 0 0.0
09 17:00 E 9 0.00 A Few Clouds FEW024 26 20 70% 27 0 0.0
09 16:00 E 15 0.00 Partly Cloudy SCT024 27 20 66% 29 0 0.0
09 15:00 E 13 0.00 Partly Cloudy SCT024 27 20 66% 29 0 0.0
09 14:00 E 13 0.00 Partly Cloudy SCT024 28 20 62% 30 0 0.0
09 13:00 SE 11 0.00 Partly Cloudy SCT024 28 20 62% 30 0 0.0
09 12:00 NE 7 0.00 Partly Cloudy SCT024 29 21 62% 31 0 0.0
09 11:00 SE 7 0.00 Partly Cloudy BKN020 SCT042 27 20 66% 29 0 0.0
09 10:00 Vrbl 4 0.00 Partly Cloudy SCT020 28 21 66% 30 0 0.0
09 09:00 W 6 0.00 Mostly Cloudy BKN020 24 23 94% 23 0 0.0
09 08:00 W 6 0.00 Mostly Cloudy BKN020 22 21 94% 0 0.0
09 07:00 W 6 0.00 Mostly Cloudy BKN020 20 20 100% 0 0.0
09 06:00 Vrbl 4 0.00 A Few Clouds FEW026 20 20 100% 0 0.0
09 05:00 Vrbl 4 0.00 A Few Clouds FEW026 20 20 100% 0 0.0
09 04:00 W 6 0.00 A Few Clouds FEW026 20 20 100% 0 0.0
09 03:00 S 7 0.00 A Few Clouds FEW026 20 20 100% 0 0.0
09 02:00 Vrbl 4 0.00 A Few Clouds FEW026 20 20 100% 0 0.0
09 01:00 Vrbl 4 0.00 A Few Clouds FEW026 21 21 100% 0 0.0
09 00:00 Vrbl 4 0.00 A Few Clouds FEW026 21 21 100% 0 0.0
08 23:00 Vrbl 4 0.00 A Few Clouds FEW026 21 21 100% 0 0.0
08 22:00 W 6 0.00 A Few Clouds FEW026 21 21 100% 0 0.0
08 21:00 Vrbl 4 0.00 A Few Clouds FEW026 22 22 100% 0 0.0
08 20:00 Calm 0.00 A Few Clouds FEW026 21 21 100% 0 0.0
08 19:00 Calm 0.00 A Few Clouds FEW026 22 21 94% 0 0.0
08 18:00 Vrbl 2 0.00 A Few Clouds FEW026 23 20 83% 0 0.0
08 17:00 E 9 0.00 A Few Clouds FEW026 26 20 70% 27 0 0.0
08 16:00 E 13 0.00 A Few Clouds FEW026 28 20 62% 30 0 0.0
08 15:00 E 15 0.00 A Few Clouds FEW026 28 20 62% 30 0 0.0
08 14:00 E 11 0.00 A Few Clouds FEW026 29 20 58% 31 0 0.0
08 13:00 E 9 0.00 A Few Clouds FEW026 29 18 51% 30 0 0.0
08 12:00 E 11 0.00 A Few Clouds FEW026 29 19 55% 30 0 0.0
08 11:00 SE 11 0.00 A Few Clouds FEW026 28 20 62% 30 0 0.0
08 10:00 E 9 0.00 A Few Clouds FEW026 28 19 58% 29 0 0.0
08 09:00 Vrbl 4 0.00 A Few Clouds FEW026 25 22 83% 26 0 0.0
08 08:00 W 6 0.00 A Few Clouds FEW026 22 22 100% 0 0.0
08 07:00 Vrbl 4 0.00 A Few Clouds FEW026 21 20 94% 0 0.0
08 06:00 Vrbl 4 0.00 Partly Cloudy SCT024 21 20 94% 0 0.0
08 05:00 Vrbl 4 0.00 Partly Cloudy SCT024 21 21 100% 0 0.0
08 04:00 Vrbl 4 0.00 Partly Cloudy SCT024 21 21 100% 0 0.0
08 03:00 Vrbl 4 0.00 Partly Cloudy SCT024 21 21 100% 0 0.0
08 02:00 Vrbl 4 0.00 Partly Cloudy SCT024 21 21 100% 0 0.0
08 01:00 Vrbl 4 0.00 Partly Cloudy SCT024 22 22 100% 0 0.0
08 00:00 Calm 0.00 Partly Cloudy SCT024 23 22 94% 0 0.0
07 23:00 Vrbl 4 0.00 Partly Cloudy SCT024 23 22 94% 0 0.0
07 22:00 Vrbl 4 0.00 Partly Cloudy SCT024 22 22 100% 0 0.0
07 21:00 Vrbl 4 0.00 Partly Cloudy SCT024 24 21 83% 24 0 0.0
07 20:00 E 7 0.00 Partly Cloudy SCT024 24 21 83% 24 0 0.0
07 19:00 E 7 0.00 Partly Cloudy SCT024 25 22 83% 26 0 0.0
07 18:00 E 6 0.00 Partly Cloudy SCT024 25 22 83% 26 0 0.0
07 17:00 SE 15 0.00 Partly Cloudy SCT024 26 22 79% 28 0 0.0
07 16:00 SE 17 0.00 Partly Cloudy SCT024 27 22 74% 29 0 0.0
07 15:00 SE 17 0.00 Partly Cloudy SCT024 28 24 79% 32 0 0.0
07 14:00 SE 13 0.00 Partly Cloudy SCT024 27 22 74% 29 0 0.0
07 13:00 E 13 0.00 Partly Cloudy SCT024 29 23 70% 33 0 0.0
07 12:00 E 15 0.00 Partly Cloudy SCT024 29 22 66% 32 0 0.0
07 11:00 SE 15 0.00 Partly Cloudy SCT024 27 21 70% 29 0 0.0
07 10:00 E 15 0.00 Partly Cloudy SCT026 27 22 74% 29 0 0.0
07 09:00 E 19 0.00 A Few Clouds FEW026 28 22 70% 31 0 0.0
07 08:00 E 9 0.00 A Few Clouds FEW020 27 22 74% 29 0 0.0
07 07:00 Vrbl 6 0.00 Partly Cloudy SCT020 24 21 83% 24 0 0.0
07 06:00 Vrbl 4 0.00 Partly Cloudy SCT020 24 23 94% 23 0 0.0
07 05:00 Calm 0.00 Partly Cloudy SCT020 23 22 94% 0 0.0
07 04:00 E 9 0.00 Partly Cloudy SCT020 24 22 89% 24 0 0.0
07 03:00 SE 7 0.00 Partly Cloudy SCT020 24 22 89% 24 0 0.0
07 02:00 SE 9 0.00 Partly Cloudy SCT020 25 23 89% 26 0 0.0
07 01:00 SE 13 0.00 Partly Cloudy SCT020 25 23 89% 26 0 0.0
07 00:00 SE 17 0.00 Partly Cloudy SCT020 26 23 84% 28 0 0.0
06 23:00 SE 11 0.00 Mostly Cloudy BKN020 25 22 83% 26 0 0.0
06 22:00 SE 15 0.00 Mostly Cloudy BKN020 25 23 89% 26 0 0.0
06 21:00 Vrbl 4 0.00 Mostly Cloudy BKN020 24 23 94% 23 0 0.0
06 20:00 Vrbl 4 0.00 Mostly Cloudy BKN020 24 23 94% 23 0 0.0
06 19:00 Vrbl 4 0.00 Light Showers Rain BKN020 24 23 94% 23 0 0.0
Date Time (+12) Wind (kph) Vis. (km) Weather Sky Cond. Air Dwpt Max. Min. Relative Humidity Wind Chill (°C) Heat Index (°C) altimeter (cm) sea level (mb) 1 hr 3 hr 6 hr
6 hour
Temperature (ºC) Pressure Precipitation (cm)